Glendale Luke AFB, AZ

12:51 AM MST on November 20, 2019 (GMT -0700)
Luke Air Force Base

Weather History for KLUF - September, 2019

Change the Weather History Date:

Saturday, September 14, 2019

  Actual Average Record
Temperature  
Mean Temperature 91 °F -  
Max Temperature 102 °F 100 °F 111 °F (1946)
Min Temperature 80 °F 66 °F 51 °F (1952)
Cooling Degree Days 26    
Growing Degree Days 41 (Base 50)    
Moisture  
Dew Point 54 °F    
Average Humidity 30    
Maximum Humidity 46    
Minimum Humidity 19    
Precipitation  
Precipitation 0.00 in - - ()
Sea Level Pressure  
Sea Level Pressure 29.87 in    
Wind  
Wind Speed 7 mph (East)    
Max Wind Speed 28 mph    
Max Gust Speed 38 mph    
Visibility 10 miles    
Events Rain , Thunderstorm    
Averages and records for this station are not official NWS values.
T = Trace of Precipitation, MM = Missing Value Source: NWS Daily Summary

Daily Weather History Graph

Daily Weather History Graph

Search for Another Location

Airport or City:

Astronomy

Sep. 14, 2019 Rise Set
Actual Time 6:12 AM MST 6:37 PM MST
Civil Twilight 5:47 AM MST 7:02 PM MST
Nautical Twilight 5:17 AM MST 7:31 PM MST
Astronomical Twilight 4:48 AM MST 8:01 PM MST
Moon 7:20 PM MST (9/14) 6:31 AM MST (9/14)
Length of Visible Light 13h 15m
Length of Day
12h 25m
Full, 100% of the Moon is Illuminated
Sep 14
Full
Sep 21
Last Quarter
Sep 28
New
Oct 5
First Quarter
Oct 13
Full

Hourly Weather History & Observations

Time (MST) Temp. Heat Index Dew Point Humidity Pressure Visibility Wind Dir Wind Speed Gust Speed Precip Events Conditions
12:58 AM 85.3 °F - 40.8 °F 21% 29.81 in 10.0 mi Calm Calm - N/A   Clear
1:58 AM 85.1 °F - 41.9 °F 22% 29.83 in 10.0 mi Calm Calm - N/A   Scattered Clouds
2:58 AM 84.2 °F - 44.6 °F 25% 29.83 in 10.0 mi NNW 8.1 mph - N/A   Clear
3:58 AM 81.0 °F - 46.6 °F 30% 29.84 in 10.0 mi NW 8.1 mph - N/A   Overcast
4:58 AM 81.5 °F - 47.8 °F 31% 29.86 in 10.0 mi North 5.8 mph - N/A   Mostly Cloudy
5:58 AM 80.8 °F - 52.0 °F 37% 29.88 in 10.0 mi NW 4.6 mph - N/A   Mostly Cloudy
6:58 AM 80.4 °F 80.4 °F 55.2 °F 42% 29.90 in 9.0 mi NNW 4.6 mph - N/A   Clear
7:58 AM 88.0 °F 86.5 °F 56.1 °F 34% 29.91 in 10.0 mi ENE 3.5 mph - N/A   Partly Cloudy
8:58 AM 91.0 °F 88.9 °F 54.3 °F 29% 29.93 in 10.0 mi East 5.8 mph - N/A   Clear
9:58 AM 94.6 °F 92.9 °F 55.4 °F 27% 29.92 in 10.0 mi ESE 11.5 mph - N/A   Mostly Cloudy
10:17 AM 93.2 °F 91.3 °F 55.4 °F 28% 29.92 in 10.0 mi ESE 12.7 mph - N/A   Scattered Clouds
10:58 AM 94.3 °F 92.7 °F 56.1 °F 28% 29.92 in 10.0 mi SSE 4.6 mph - N/A   Mostly Cloudy
11:58 AM 97.2 °F 96.0 °F 56.5 °F 26% 29.89 in 10.0 mi Calm Calm - N/A   Clear
12:58 PM 100.2 °F 98.2 °F 53.2 °F 21% 29.86 in 10.0 mi South 4.6 mph - N/A   Clear
1:58 PM 100.8 °F 98.9 °F 53.6 °F 21% 29.82 in 10.0 mi NE 8.1 mph - N/A   Clear
2:58 PM 102.4 °F 100.6 °F 53.6 °F 20% 29.80 in 10.0 mi SE 8.1 mph - N/A   Partly Cloudy
3:58 PM 102.4 °F - 52.2 °F 19% 29.79 in 10.0 mi ESE 8.1 mph - N/A   Scattered Clouds
4:58 PM 101.8 °F - 51.8 °F 19% 29.80 in 10.0 mi ESE 10.4 mph - N/A   Overcast
5:28 PM 96.8 °F 96.2 °F 59.0 °F 28% 29.83 in 3.0 mi ESE 26.5 mph 34.5 mph N/A   Widespread Dust
5:58 PM 93.9 °F 92.2 °F 55.8 °F 28% 29.84 in 10.0 mi ESE 27.6 mph 38.0 mph N/A   Scattered Clouds
6:58 PM 92.1 °F 89.7 °F 53.2 °F 27% 29.87 in 10.0 mi East 19.6 mph 24.2 mph N/A   Scattered Clouds
7:11 PM 91.4 °F 89.9 °F 57.2 °F 31% 29.89 in 10.0 mi ENE 17.3 mph - N/A   Scattered Clouds
7:54 PM 89.6 °F - 50.0 °F 26% 29.88 in 7.0 mi East 13.8 mph 25.3 mph N/A Thunderstorm Mostly Cloudy
7:58 PM 90.5 °F - 50.9 °F 26% 29.88 in 7.0 mi East 16.1 mph 25.3 mph N/A Thunderstorm Mostly Cloudy
8:08 PM 89.6 °F - 51.8 °F 27% 29.88 in 10.0 mi ESE 12.7 mph 23.0 mph N/A Rain Light Rain
8:18 PM 87.8 °F 86.1 °F 55.4 °F 33% 29.88 in 10.0 mi SSE 12.7 mph 18.4 mph N/A   Overcast
8:31 PM 86.0 °F 85.4 °F 59.0 °F 40% 29.88 in 10.0 mi ESE 8.1 mph - N/A   Light Drizzle
8:41 PM 86.0 °F 84.9 °F 57.2 °F 37% 29.88 in 10.0 mi SE 6.9 mph - N/A   Mostly Cloudy
8:58 PM 85.3 °F 84.8 °F 58.8 °F 41% 29.89 in 10.0 mi ENE 9.2 mph - 0.00 in   Scattered Clouds
9:58 PM 83.8 °F 84.1 °F 60.8 °F 46% 29.90 in 10.0 mi NNE 6.9 mph - N/A   Overcast
10:58 PM 84.6 °F 84.8 °F 60.8 °F 45% 29.90 in 10.0 mi North 5.8 mph - N/A   Overcast
11:58 PM 84.4 °F 84.4 °F 60.1 °F 44% 29.87 in 10.0 mi ENE 8.1 mph - N/A   Partly Cloudy